Mexicali, Mexico

1:03 AM PST on February 26, 2017 (GMT -0800)
Gen Rodolfo Sanchez Taboada

Weather History for MMML - October, 2012

Change the Weather History Date:

Wednesday, October 3, 2012

  Actual Average Record
Temperature  
Mean Temperature 86 °F -  
Max Temperature 105 °F 87 °F 105 °F (2012)
Min Temperature 68 °F 59 °F 55 °F (2002)
Cooling Degree Days 22    
Growing Degree Days 36 (Base 50)    
Moisture  
Dew Point 46 °F    
Average Humidity 34    
Maximum Humidity 78    
Minimum Humidity 6    
Precipitation  
Precipitation 0.00 in - - ()
Sea Level Pressure  
Sea Level Pressure 29.84 in    
Wind  
Wind Speed 5 mph ()    
Max Wind Speed 14 mph    
Max Gust Speed -    
Visibility 10.0 miles    
Events      
Averages and records for this station are not official NWS values.
T = Trace of Precipitation, MM = Missing Value Source: Averaged Metar Reports

Daily Weather History Graph

Daily Weather History Graph

Search for Another Location

Airport or City:

Trip Planner

Search our weather history database for the weather conditions in past years. The results will help you decide how hot, cold, wet, or windy it might be!

Date:

Astronomy

Oct. 03, 2012 Rise Set
Actual Time 6:36 AM PDT 6:22 PM PDT
Civil Twilight 6:12 AM PDT 6:46 PM PDT
Nautical Twilight 5:43 AM PDT 7:15 PM PDT
Astronomical Twilight 5:15 AM PDT 7:43 PM PDT
Moon 8:31 PM PDT (10/3) 9:50 AM PDT (10/3)
Length of Visible Light 12h 34m
Length of Day
11h 45m
Waning Gibbous, 88% of the Moon is Illuminated
Oct 3
Waning Gibbous
Oct 8
Last Quarter
Oct 15
New
Oct 21
First Quarter
Oct 29
Full

Hourly Weather History & Observations

Time (PDT) Temp. Heat Index Dew Point Humidity Pressure Visibility Wind Dir Wind Speed Gust Speed Precip Events Conditions
12:42 AM 78.8 °F - 51.8 °F 39% 29.76 in 10.0 mi ENE 6.9 mph - N/A   Clear
4:48 AM 71.6 °F - 55.4 °F 57% 29.78 in 10.0 mi ESE 5.8 mph - N/A   Clear
6:42 AM 68.0 °F - 60.8 °F 78% 29.81 in 10.0 mi East 5.8 mph - N/A   Clear
7:27 AM 71.6 °F - 64.4 °F 78% 29.83 in 10.0 mi Calm Calm - N/A   Clear
7:44 AM 71.6 °F - 64.4 °F 78% 29.86 in 10.0 mi Calm Calm - N/A   Clear
8:28 AM 77.0 °F - 68.0 °F 74% 29.86 in 10.0 mi SE 8.1 mph - N/A   Clear
8:43 AM 78.8 °F - 69.8 °F 74% 29.86 in 10.0 mi Calm Calm - N/A   Clear
9:41 AM 86.0 °F 90.4 °F 69.8 °F 58% 29.87 in 10.0 mi SSE 5.8 mph - N/A   Clear
10:54 AM 96.8 °F 94.4 °F 53.6 °F 23% 29.87 in 10.0 mi Calm Calm - N/A   Clear
12:48 PM 104.0 °F - 33.8 °F 9% 29.83 in 10.0 mi Calm Calm - N/A   Clear
1:50 PM 104.0 °F - 28.4 °F 7% 29.81 in 10.0 mi West 6.9 mph - N/A   Clear
2:43 PM 105.8 °F - 26.6 °F 6% 29.80 in 10.0 mi West 9.2 mph - N/A   Clear
3:42 PM 105.8 °F - 26.6 °F 6% 29.80 in 10.0 mi West 8.1 mph - N/A   Clear
4:50 PM 104.0 °F - 28.4 °F 7% 29.81 in 10.0 mi West 13.8 mph - N/A   Clear
5:42 PM 100.4 °F - 32.0 °F 9% 29.81 in 10.0 mi Calm Calm - N/A   Clear
6:52 PM 95.0 °F - 33.8 °F 12% 29.82 in 10.0 mi West 11.5 mph - N/A   Clear
7:51 PM 91.4 °F - 32.0 °F 12% 29.85 in 10.0 mi West 11.5 mph - N/A   Clear
8:46 PM 91.4 °F - 33.8 °F 13% 29.85 in 10.0 mi West 12.7 mph - N/A   Clear
9:47 PM 87.8 °F - 37.4 °F 17% 29.87 in 10.0 mi West 11.5 mph - N/A   Clear
10:47 PM 86.0 °F - 42.8 °F 22% 29.91 in 10.0 mi West 13.8 mph - N/A   Clear
11:47 PM 82.4 °F - 44.6 °F 26% 29.89 in 10.0 mi NW 11.5 mph - N/A   Clear